Location: Archemont
(49.1579°N, 1.7598°E)
Time: 06:19:10
(UTC+00:00)

S-56A Canister/Altair - Pass Details

Date: 17 April 2024
Orbit: 638 x 2488 km, 38.9° (Epoch: 17 May)

Event Time Altitude Azimuth Distance (km) Brightness Sun altitude
Rises 18:31:52 0° 238° (WSW) 3,515 11.6 1.9°
Reaches altitude 10° 18:34:14 10° 230° (SW) 2,760 10.9 1.5°
Maximum altitude 18:40:22 38° 164° (SSE) 1,860 9.3 0.5°
Drops below altitude 10° 18:49:14 10° 102° (ESE) 4,003 10.5 -0.9°
Enters shadow 18:53:12 - 96° (E) 5,229 11.1 -1.5°
Sets 18:53:26 0° 96° (E) 5,301 - -1.5°
